Tiempo cada hora Almaty

Hoy, 27 Julio, Martes

Tiempo Temperatura Precipitaciones Viento Presión Humedad
00:00 +28°C° 0 mm 2 mps 684 mmHg 29%
01:00 +27°C° 0 mm 2 mps 684 mmHg 29%
02:00 +27°C° 0 mm 2 mps 684 mmHg 30%
03:00 +26°C° 0 mm 2 mps 684 mmHg 32%
04:00 +26°C° 0 mm 2 mps 684 mmHg 33%
05:00 +26°C° 0 mm 2 mps 684 mmHg 32%
06:00 +28°C° 0 mm 2 mps 684 mmHg 33%
07:00 +29°C° 0 mm 3 mps 685 mmHg 35%
08:00 +31°C° 0 mm 3 mps 685 mmHg 36%
09:00 +33°C° 0 mm 3 mps 685 mmHg 35%
10:00 +34°C° 0 mm 3 mps 685 mmHg 35%
11:00 +34°C° 0 mm 4 mps 685 mmHg 37%
12:00 +34°C° 0.1 mm 4 mps 685 mmHg 37%
13:00 +35°C° 0.1 mm 4 mps 685 mmHg 38%
14:00 +35°C° 0.1 mm 4 mps 685 mmHg 38%
15:00 +35°C° 0 mm 4 mps 684 mmHg 39%
16:00 +34°C° 0 mm 4 mps 684 mmHg 40%
17:00 +34°C° 0 mm 4 mps 684 mmHg 41%
18:00 +31°C° 0 mm 3 mps 684 mmHg 44%
19:00 +29°C° 0 mm 2 mps 684 mmHg 48%
20:00 +27°C° 0 mm 1 mps 684 mmHg 51%
21:00 +26°C° 0 mm 1 mps 684 mmHg 52%
22:00 +25°C° 0 mm 1 mps 684 mmHg 53%
23:00 +25°C° 0 mm 1 mps 683 mmHg 54%

Mañana, 28 Julio, Miércoles

Tiempo Temperatura Precipitaciones Viento Presión Humedad
00:00 +24°C° 0 mm 1 mps 683 mmHg 53%
01:00 +24°C° 0 mm 1 mps 683 mmHg 53%
02:00 +24°C° 0 mm 1 mps 682 mmHg 52%
03:00 +24°C° 0 mm 1 mps 682 mmHg 53%
04:00 +23°C° 0 mm 1 mps 682 mmHg 54%
05:00 +23°C° 0 mm 1 mps 683 mmHg 55%
06:00 +25°C° 0 mm 1 mps 683 mmHg 51%
07:00 +26°C° 0 mm 2 mps 683 mmHg 47%
08:00 +28°C° 0 mm 2 mps 683 mmHg 43%
09:00 +29°C° 0.1 mm 2 mps 683 mmHg 40%
10:00 +30°C° 0.1 mm 2 mps 683 mmHg 38%
11:00 +31°C° 0.1 mm 3 mps 683 mmHg 35%
12:00 +33°C° 0 mm 3 mps 683 mmHg 34%
13:00 +34°C° 0 mm 4 mps 683 mmHg 33%
14:00 +34°C° 0 mm 4 mps 683 mmHg 32%
15:00 +34°C° 0 mm 4 mps 683 mmHg 31%
16:00 +33°C° 0 mm 4 mps 683 mmHg 31%
17:00 +33°C° 0 mm 4 mps 683 mmHg 31%
18:00 +30°C° 0 mm 4 mps 683 mmHg 34%
19:00 +27°C° 0 mm 3 mps 683 mmHg 36%
20:00 +25°C° 0 mm 2 mps 683 mmHg 39%
21:00 +24°C° 0 mm 2 mps 683 mmHg 40%
22:00 +23°C° 0 mm 2 mps 682 mmHg 41%
23:00 +23°C° 0 mm 1 mps 682 mmHg 42%

Pasado mañana, 29 Julio, Jueves

Tiempo Temperatura Precipitaciones Viento Presión Humedad
00:00 +21°C° 0 mm 2 mps 682 mmHg 42%
01:00 +21°C° 0 mm 2 mps 682 mmHg 42%
02:00 +21°C° 0 mm 2 mps 682 mmHg 43%
03:00 +21°C° 0 mm 2 mps 681 mmHg 43%
04:00 +21°C° 0 mm 2 mps 681 mmHg 44%
05:00 +21°C° 0 mm 2 mps 681 mmHg 45%
06:00 +24°C° 0 mm 2 mps 681 mmHg 40%
07:00 +26°C° 0 mm 2 mps 682 mmHg 36%
08:00 +27°C° 0 mm 2 mps 682 mmHg 31%
09:00 +29°C° 0 mm 2 mps 682 mmHg 29%
10:00 +30°C° 0 mm 2 mps 682 mmHg 26%
11:00 +33°C° 0 mm 3 mps 682 mmHg 23%
12:00 +33°C° 0 mm 3 mps 682 mmHg 23%
13:00 +34°C° 0 mm 3 mps 682 mmHg 23%
14:00 +35°C° 0 mm 3 mps 682 mmHg 23%
15:00 +34°C° 0 mm 4 mps 682 mmHg 23%
16:00 +34°C° 0 mm 4 mps 682 mmHg 24%
17:00 +33°C° 0 mm 5 mps 682 mmHg 24%
18:00 +29°C° 0 mm 4 mps 683 mmHg 28%
19:00 +27°C° 0 mm 3 mps 683 mmHg 31%
20:00 +24°C° 0 mm 1 mps 684 mmHg 34%
21:00 +23°C° 0 mm 1 mps 684 mmHg 35%
22:00 +23°C° 0 mm 1 mps 684 mmHg 37%
23:00 +22°C° 0 mm 1 mps 684 mmHg 38%

30 Julio, Viernes

Tiempo Temperatura Precipitaciones Viento Presión Humedad
00:00 +22°C° 0.1 mm 1 mps 684 mmHg 39%
01:00 +21°C° 0.1 mm 1 mps 684 mmHg 41%
02:00 +21°C° 0.1 mm 1 mps 684 mmHg 43%
03:00 +20°C° 0 mm 1 mps 684 mmHg 44%
04:00 +20°C° 0 mm 1 mps 685 mmHg 45%
05:00 +20°C° 0 mm 1 mps 685 mmHg 45%
06:00 +21°C° 0 mm 1 mps 686 mmHg 41%
07:00 +23°C° 0 mm 2 mps 687 mmHg 36%
08:00 +25°C° 0 mm 2 mps 688 mmHg 32%
09:00 +26°C° 0 mm 2 mps 688 mmHg 32%
10:00 +27°C° 0 mm 3 mps 688 mmHg 32%
11:00 +27°C° 0 mm 4 mps 688 mmHg 31%
12:00 +28°C° 0 mm 3 mps 688 mmHg 33%
13:00 +28°C° 0 mm 3 mps 688 mmHg 34%
14:00 +28°C° 0 mm 3 mps 688 mmHg 36%
15:00 +27°C° 0 mm 3 mps 688 mmHg 36%
16:00 +27°C° 0 mm 2 mps 688 mmHg 37%
17:00 +27°C° 0 mm 2 mps 688 mmHg 38%
18:00 +25°C° 0 mm 2 mps 688 mmHg 41%
19:00 +24°C° 0 mm 2 mps 688 mmHg 45%
20:00 +21°C° 0 mm 2 mps 688 mmHg 48%
21:00 +21°C° 0 mm 2 mps 688 mmHg 48%
22:00 +20°C° 0 mm 2 mps 687 mmHg 48%
23:00 +20°C° 0 mm 2 mps 687 mmHg 48%

31 Julio, Sábado

Tiempo Temperatura Precipitaciones Viento Presión Humedad
00:00 +19°C° 0 mm 2 mps 687 mmHg 48%
01:00 +19°C° 0 mm 2 mps 687 mmHg 47%
02:00 +18°C° 0 mm 2 mps 686 mmHg 47%
03:00 +18°C° 0 mm 2 mps 686 mmHg 45%
04:00 +18°C° 0 mm 2 mps 686 mmHg 42%
05:00 +18°C° 0 mm 2 mps 686 mmHg 40%
06:00 +20°C° 0 mm 2 mps 686 mmHg 36%
07:00 +24°C° 0 mm 2 mps 686 mmHg 33%
08:00 +26°C° 0 mm 2 mps 687 mmHg 29%
09:00 +27°C° 0 mm 2 mps 687 mmHg 28%
10:00 +29°C° 0 mm 3 mps 687 mmHg 26%
11:00 +31°C° 0 mm 3 mps 686 mmHg 25%
12:00 +33°C° 0 mm 4 mps 686 mmHg 24%
13:00 +33°C° 0 mm 4 mps 686 mmHg 23%
14:00 +34°C° 0 mm 4 mps 686 mmHg 22%
15:00 +34°C° 0 mm 4 mps 686 mmHg 22%
16:00 +34°C° 0 mm 4 mps 686 mmHg 23%
17:00 +34°C° 0 mm 4 mps 686 mmHg 23%
18:00 +30°C° 0 mm 3 mps 686 mmHg 28%
19:00 +28°C° 0 mm 3 mps 685 mmHg 32%
20:00 +25°C° 0 mm 2 mps 685 mmHg 36%
21:00 +25°C° 0 mm 2 mps 685 mmHg 37%
22:00 +24°C° 0 mm 3 mps 685 mmHg 37%
23:00 +24°C° 0 mm 3 mps 685 mmHg 38%

1 Agosto, Domingo

Tiempo Temperatura Precipitaciones Viento Presión Humedad
00:00 +23°C° 0 mm 2 mps 685 mmHg 37%
01:00 +23°C° 0 mm 2 mps 684 mmHg 36%
02:00 +23°C° 0 mm 2 mps 684 mmHg 35%
03:00 +23°C° 0 mm 2 mps 684 mmHg 33%
04:00 +23°C° 0 mm 2 mps 684 mmHg 32%
05:00 +21°C° 0 mm 2 mps 684 mmHg 30%
06:00 +25°C° 0 mm 2 mps 684 mmHg 28%
07:00 +27°C° 0 mm 2 mps 684 mmHg 25%
08:00 +29°C° 0 mm 1 mps 685 mmHg 22%
09:00 +31°C° 0 mm 2 mps 685 mmHg 22%
10:00 +32°C° 0 mm 2 mps 685 mmHg 21%
11:00 +34°C° 0 mm 3 mps 685 mmHg 21%
12:00 +35°C° 0 mm 3 mps 684 mmHg 21%
13:00 +36°C° 0 mm 3 mps 684 mmHg 20%
14:00 +37°C° 0 mm 4 mps 684 mmHg 20%
15:00 +36°C° 0 mm 4 mps 684 mmHg 20%
16:00 +36°C° 0 mm 4 mps 684 mmHg 20%
17:00 +36°C° 0 mm 4 mps 684 mmHg 21%
18:00 +33°C° 0 mm 3 mps 684 mmHg 23%
19:00 +30°C° 0 mm 3 mps 684 mmHg 25%
20:00 +28°C° 0 mm 2 mps 684 mmHg 28%
21:00 +27°C° 0 mm 2 mps 684 mmHg 28%
22:00 +26°C° 0 mm 2 mps 684 mmHg 29%
23:00 +25°C° 0 mm 2 mps 684 mmHg 30%
Mostrar más

Necesitamos Su Consentimiento

Meteoprog y nuestros Proveedores de Servicios pueden almacenar y acceder a sus datos personales como cookies, identificadores de dispositivo u otras tecnologías similares de su dispositivo y procesar dichos datos para personalizar contenido y anuncios, además de ofrecer funciones de redes sociales y analizar el tráfico.

  • Almacenar y/o acceder a información en su dispositivo

    Se puede almacenar o acceder a cookies, identificadores de dispositivo u otra información de su dispositivo para los fines anteriormente indicados.

  • Anuncios y contenido personalizados, medición de anuncios y contenido, percepciones del público, y desarrollo de productos

    Los anuncios y el contenido pueden personalizarse en base a su perfil. Se pueden añadir más datos para personalizar mejor los anuncios y contenidos. Se puede medir el rendimiento de los anuncios y contenidos. Se puede obtener la percepción sobre el público que ha visto los anuncios y contenidos. Dichos datos pueden usarse para desarrollar o mejorar la experiencia del usuario, sistemas y software.

Al hacer clic en ‘Estoy De Acuerdo’ usted permitirá el uso de las cookies, identificadores de dispositivo, balizas web u otras tecnologías similares indicadas. Su configuración puede cambiarse desde el navegador de su dispositivo.

Para ciertos fines, los intereses legítimos pueden ser considerados por encima del consentimiento. Puede leer más sobre ello en nuestra Política de Privacidad y Cookies.